• Join FlightAware (Why Join?)
  • Login
  • US Flag 
05:11AM EDT


 

Airport Tracker/Info


-or-


 

Live Flight TrackerFlight Track Log ✈ N58BT ✈ 12-Dec-2013 ✈ KEYW - KAPF

Flight Track Log - Related Links

Times and Time Zones

All times are in EST time to prevent confusion due to time zone crossing. See the N58BT flight status page for this flight to view local times or setup timezone preferences in your user account.

Time Position Orientation Groundspeed Altitude Reporting Facility
EST Latitude Longitude Course Direction KTS MPH feet Rate Location/Type
10:34AM 24.9481 -81.7533 357° North 172 198 14,300  Level Miami Center
10:35AM 24.9983 -81.7531 360° North 172 198 14,500 60 Climbing Miami Center
10:36AM 25.0506 -81.7553 358° North 178 205 14,500  Level Miami Center
10:37AM 25.1047 -81.7575 358° North 183 211 14,500  Level Miami Center
10:38AM 25.1567 -81.7594 358° North 183 211 14,500  Level Miami Center
10:39AM 25.2131 -81.7594 360° North 183 211 14,500  Level Miami Center
10:40AM 25.0433 -81.7644 357° North  Level Estimated
10:40AM 25.2653 -81.7592 360° North 188 216 14,500  Level Miami Center
10:41AM 25.3175 -81.7614 358° North 188 216 14,500  Level Miami Center
10:42AM 25.3717 -81.7611 360° North 188 216 14,500  Level Miami Center
10:43AM 25.4239 -81.7633 358° North 193 222 14,500  Level Miami Center
10:44AM 25.4783 -81.7633 360° North 193 222 14,500  Level Miami Center
10:45AM 25.5325 -81.7656 358° North 193 222 14,500  Level Miami Center
10:46AM 25.5867 -81.7678 358° North 193 222 14,500 -60 Level Miami Center
10:47AM 25.6389 -81.7697 358° North 193 222 14,400 -540 Descending Miami Center
10:48AM 25.6931 -81.7742 356° North 193 222 13,500 -1,200 Descending Miami Center
10:49AM 25.7511 -81.7811 354° North 193 222 12,100 -1,320 Descending Miami Center
10:50AM 25.8050 -81.7928 349° North 193 222 10,900 -1,200 Descending Miami Center
10:51AM 25.8506 -81.8039 348° North 193 222 9,800 1,800 Descending Miami Center
10:52AM 25.9086 -81.8178 348° North 193 222 14,500 2,340 Climbing Miami Center
10:53AM 25.9603 -81.8314 347° North 193 222 14,500  Level Miami Center
10:54AM 26.0119 -81.8450 347° North 193 222 14,500  Level Miami Center
10:56AM 26.0119 -81.8450 360° North 193 222 14,500  Level Miami Center
10:58AM 26.0119 -81.8450 360° North 193 222 14,500  Level Miami Center
11:00AM 26.0513 -81.8227 27° Northeast  Level FlightAware Approximate
11:07AM 26.1500 -81.7667 22° Northeast  Level FlightAware Approximate
11:08AM 26.1524 -81.7756 22° Northeast  Level Estimated
11:09AM 26.1524 -81.7756 22° Northeast  Level Estimated
11:10AM 26.1524 -81.7756 22° Northeast  Level Estimated
11:11AM 26.1524 -81.7756 22° Northeast  Level Estimated
11:12AM 26.1524 -81.7756 22° Northeast  Level Estimated
11:13AM 26.1524 -81.7756 22° Northeast  Level Estimated
11:14AM 26.1524 -81.7756 22° Northeast  Level Estimated
11:15AM 26.1524 -81.7756 22° Northeast  Level Estimated
11:16AM 26.1524 -81.7756 22° Northeast  Level Estimated
11:17AM 26.1524 -81.7756 22° Northeast  Level Estimated